ONEWEB-0405

operational
NORAD ID: 50485 Int'l Des: 2021-132 Owner: ONEWEBN Country: UK Constellation: oneweb
LEOCIRCULARPOLARONEWEB_TYPE

Über ONEWEB-0405

Beschreibung wird geladen...

Live-Position

3D-Globus wird geladen...

Nächste Überflüge

Höhenverlauf

Altitude vs Time

uPlot chart will show altitude changes over time

Zweizeiliger Elementsatz

1 50485U 21132S 25250.94776488 -.00000055 00000-0 -17318-3 0 9993
2 50485 87.9177 31.4809 0001828 86.7611 273.3731 13.18685052184790
Epoch: 7. Sept. 2025 • Age: 6 hours

Aktueller Status

Höhe 1194.3 km
Geschwindigkeit 7.26 km/s
Subsatellitenpunkt -7.95°S, 146.81°E
Startdatum 27. Dez. 2021
Alter 3.6 years
Typ internet

Technische Details

Klassifizierung Payload
Masse 148.00 kg
Trockenmasse 140.00 kg
Gesamtmasse 148.00 kg
Länge 1.30 m
Durchmesser 1.00 m
Spannweite 5.00 m
Form Trapezoid+2 pan
Hersteller ONEWUS
Bus-Typ ARROW
Phasenstatus In Orbit
Besitzer/Staat ONEWEBN/UK

Große Konstellationen

Loading constellations...